Wind_Speed
23 24 25 25 25 25 25 24 24 23 23 22 22 22 21 21 20 20 19 18 16 14 13 12 12 11 11 10 10 9 9 9 9 9 8 7 7 7 7 6 6 7 7 7 7 6 7 7 7 7 7 7 6 4 3 3 3 3 3 4 5 6 7 8 9 10 10 10 10 11 11 12 13 13 14 14 14 15 15 16 16 17 18 19 20
21 22 24 25 25 25 26 25 25 24 23 23 23 22 21 20 20 19 18 17 16 14 14 13 12 12 11 11 10 10 10 10 10 10 9 8 8 7 7 6 6 6 6 6 6 6 7 7 7 7 8 8 6 4 3 3 2 2 3 3 4 5 6 7 9 10 11 11 10 11 11 12 12 13 14 14 14 15 16 17 18 18 19 20 21
21 22 23 23 24 26 26 26 26 25 24 24 23 22 21 21 20 19 18 17 16 15 15 14 13 12 12 11 11 10 11 11 11 11 10 9 9 8 7 7 6 6 6 6 7 7 7 7 7 7 8 7 6 5 4 4 3 2 3 3 4 5 6 7 8 9 10 12 12 13 13 13 14 15 15 15 16 16 17 18 19 20 21 22 23
23 23 23 23 25 26 27 27 27 26 26 25 24 23 22 21 20 19 19 18 17 16 15 14 13 12 12 12 11 11 11 11 11 10 10 10 9 9 8 8 8 7 7 7 7 7 7 7 6 6 7 6 5 5 5 5 4 4 3 4 4 5 6 7 9 9 11 12 14 15 16 17 17 17 18 18 18 19 20 19 20 21 23 23 24
24 24 24 25 25 26 27 27 27 27 27 26 26 25 24 22 21 21 20 18 18 17 15 14 14 13 13 12 12 11 10 10 10 9 10 10 10 10 10 9 9 8 8 7 6 6 6 5 4 4 4 4 4 5 5 5 5 5 6 6 6 6 7 8 10 10 11 13 15 15 16 18 19 20 20 20 21 22 22 21 21 22 24 24 25
25 25 25 26 26 26 26 26 25 26 26 26 26 26 25 24 23 22 21 19 19 18 16 15 15 14 13 12 11 10 10 10 10 10 10 11 11 12 11 10 9 8 6 5 5 5 4 4 3 2 1 0 2 3 5 6 6 6 7 8 9 9 10 10 11 12 12 13 15 16 17 18 19 20 22 22 22 24 25 23 22 22 23 23 25
25 25 26 27 27 27 27 26 25 25 26 26 26 26 25 24 24 22 21 20 20 18 17 17 16 15 13 12 11 11 10 10 10 10 11 11 12 12 11 10 8 6 6 6 6 5 5 4 4 3 3 4 3 3 3 4 6 7 9 10 10 11 12 13 13 13 14 14 15 16 18 18 18 19 22 23 23 25 27 26 24 24 24 23 24
24 25 27 27 28 28 28 28 27 27 27 27 27 26 25 24 23 22 21 21 20 19 19 18 16 14 13 12 11 11 11 10 10 10 10 11 11 11 11 9 8 8 8 7 6 5 5 4 4 5 5 5 3 2 2 3 5 7 9 10 11 12 13 14 15 15 16 16 16 17 18 19 19 20 21 23 23 25 28 28 27 27 27 25 25
25 25 26 26 27 28 29 28 28 28 29 28 27 26 25 24 23 22 22 21 21 21 20 18 16 14 13 13 12 11 11 10 10 10 10 11 11 12 11 10 10 10 10 9 8 6 5 4 4 4 3 2 1 1 3 4 6 8 10 12 12 14 15 16 16 17 17 17 17 18 19 19 20 22 23 24 25 26 28 29 28 29 30 28 27
25 25 26 27 28 29 29 29 29 29 29 27 27 26 25 24 24 23 22 22 21 21 20 17 15 14 14 13 12 11 11 10 10 10 11 11 12 13 13 13 12 12 11 9 8 6 5 3 2 2 0 1 3 4 6 8 10 11 13 14 15 16 17 17 18 18 19 19 20 21 21 20 20 24 25 26 28 29 29 30 29 29 31 30 29
25 25 26 28 29 29 29 28 28 28 28 28 27 26 26 25 24 23 22 22 21 21 19 17 16 15 15 14 13 12 11 11 11 12 13 13 14 14 14 14 13 12 11 10 8 6 4 3 2 2 3 4 6 7 9 11 13 14 16 17 18 18 19 19 20 21 22 22 22 24 25 23 23 25 27 27 29 30 30 30 29 29 31 31 29
25 25 26 27 28 28 28 28 28 28 28 28 28 27 27 26 25 24 23 22 22 20 19 17 17 16 15 14 14 13 12 12 13 14 15 15 15 14 14 13 13 12 11 10 8 6 5 4 4 4 5 7 9 10 12 14 16 17 19 19 19 19 20 20 21 22 24 24 24 25 26 26 26 26 28 30 31 32 31 31 30 30 31 31 29
25 25 26 26 26 27 28 28 28 29 29 29 29 28 27 26 25 24 24 23 22 20 19 19 19 18 16 15 15 15 14 14 14 15 16 16 15 15 14 14 13 12 11 10 9 7 6 6 6 6 8 10 11 13 15 17 19 20 21 22 22 22 22 22 23 24 26 26 26 26 27 28 28 27 30 33 34 34 34 33 33 33 33 32 31
26 26 26 26 26 26 27 26 27 27 28 28 28 27 27 26 25 25 25 24 22 20 20 20 20 19 17 17 18 17 17 16 16 16 17 17 16 16 15 15 15 14 14 12 10 9 8 8 8 9 11 12 13 15 17 19 21 23 23 24 24 24 24 25 26 27 28 29 28 27 28 31 31 30 32 35 36 36 36 36 37 37 36 35 34
26 27 26 26 26 25 25 25 25 25 26 26 26 25 25 25 25 25 25 24 22 22 23 22 22 21 20 20 20 19 18 18 18 18 19 19 18 16 16 15 15 15 14 14 12 11 11 10 10 11 13 14 16 18 20 22 23 24 24 25 25 25 25 26 27 29 30 30 31 30 31 33 35 35 36 38 39 39 40 40 40 40 40 38 36
26 25 24 22 22 22 22 22 22 22 22 22 21 21 21 22 23 23 23 23 23 24 24 24 24 24 23 22 21 20 20 20 19 20 20 20 19 17 16 16 16 15 15 15 14 13 13 13 13 13 15 16 18 20 22 24 25 25 25 27 27 27 26 27 29 31 31 32 33 34 34 36 37 38 38 40 41 42 44 44 44 44 44 41 39
25 24 23 21 21 21 21 20 20 19 18 18 17 18 19 20 21 22 22 22 23 24 25 26 27 27 26 24 23 22 22 22 21 22 22 22 21 19 18 19 17 16 16 17 17 16 15 15 15 15 16 17 20 22 24 26 26 26 27 28 29 28 28 29 31 32 33 34 35 36 37 38 39 39 39 40 41 43 45 44 43 47 48 45 44
26 25 24 24 23 22 21 21 20 19 18 17 16 17 17 18 20 20 21 21 22 23 25 28 29 29 28 26 25 24 24 24 24 24 24 24 23 21 21 21 20 18 18 19 20 19 17 16 17 17 17 19 22 24 26 28 28 28 29 30 30 29 29 31 32 32 33 35 36 37 39 41 42 42 43 45 47 48 49 46 46 51 52 51 51
26 26 26 25 25 24 23 22 21 20 18 17 16 16 17 17 18 19 20 21 21 23 25 27 29 30 30 28 27 26 27 27 27 26 26 26 25 24 24 24 22 20 20 21 22 21 18 17 17 19 20 22 24 26 28 30 30 31 33 33 33 32 33 35 35 34 34 34 34 36 39 42 45 46 47 50 51 52 54 53 53 56 57 55 54
28 28 27 26 25 25 24 24 23 22 21 20 19 18 18 17 17 18 19 20 22 23 25 25 27 29 31 30 29 28 28 29 28 27 28 29 28 27 26 25 23 22 22 23 23 21 19 18 19 22 23 25 26 28 30 32 33 34 35 37 37 37 39 41 41 39 37 35 36 40 43 44 46 47 48 50 52 54 56 57 57 58 58 56 54
32 30 29 28 26 26 25 25 25 25 25 24 23 22 21 19 18 18 18 20 21 22 24 25 25 27 30 31 30 29 29 29 29 29 29 30 29 29 28 25 24 24 25 25 23 21 20 20 22 24 26 27 29 31 33 35 36 36 37 38 40 42 44 47 48 45 40 37 40 43 44 44 44 44 46 49 51 52 53 55 56 57 58 57 55
35 33 31 30 29 28 28 27 27 27 27 27 26 25 24 22 21 20 20 20 20 21 22 24 25 26 28 29 29 29 29 29 29 29 30 30 30 30 29 27 26 28 28 26 24 22 22 24 25 27 29 30 31 34 36 37 38 38 38 40 41 44 49 52 52 48 42 40 41 41 41 42 42 42 44 47 49 50 51 53 55 56 57 56 56
36 34 33 32 32 31 30 30 30 30 30 30 29 28 28 27 25 23 22 22 22 21 21 22 24 26 27 28 29 29 30 30 31 31 31 32 32 32 31 30 30 31 30 27 26 25 25 27 28 30 31 33 34 36 37 38 39 39 40 41 42 46 51 54 55 52 46 42 42 42 43 45 46 45 46 46 47 48 49 52 54 55 55 55 55
36 36 35 35 35 35 34 33 33 33 32 32 32 31 31 31 29 27 25 23 22 22 22 21 22 24 26 28 29 31 32 33 33 33 33 33 34 34 33 33 33 33 32 29 28 28 28 29 31 33 34 36 36 37 37 38 40 41 42 43 44 46 49 54 58 55 48 44 46 48 48 49 50 50 50 50 50 50 51 53 56 57 57 57 56
37 37 37 37 37 36 36 35 34 34 34 34 34 34 34 34 33 31 28 25 23 23 23 23 23 23 24 26 28 31 34 35 35 34 34 34 34 34 34 34 34 34 32 30 30 30 31 32 34 35 36 37 37 38 39 40 42 43 44 45 46 47 48 52 58 58 54 51 53 54 54 53 53 54 55 56 57 57 58 59 60 60 59 58 56
41 40 39 39 38 37 37 36 35 35 36 37 37 37 37 36 36 34 32 28 26 25 25 25 24 24 25 25 26 29 32 33 33 33 33 33 33 33 33 34 34 34 32 31 32 33 34 35 37 38 38 39 39 40 41 43 44 45 46 46 47 47 48 52 57 60 59 58 58 59 58 58 57 57 58 59 60 60 60 61 61 59 58 57 56
44 44 43 42 41 40 39 39 39 39 40 40 41 40 39 38 38 36 34 31 29 27 27 27 26 26 26 26 26 27 28 29 30 31 32 32 32 33 33 33 34 34 33 33 34 36 37 38 39 40 40 41 42 42 43 45 46 46 47 48 48 49 50 53 56 60 62 62 62 62 62 62 61 60 60 61 61 60 59 59 57 54 52 53 55
43 44 45 44 44 43 43 42 42 42 42 42 42 42 41 40 39 38 37 34 32 30 29 29 28 28 28 28 28 27 26 26 27 29 30 31 32 32 33 33 34 34 35 36 37 38 39 40 41 42 43 43 43 44 45 46 47 48 48 49 50 51 53 55 57 60 62 63 64 65 65 65 65 64 63 62 61 58 56 55 53 51 50 51 54
40 41 42 42 42 42 41 40 39 38 38 38 38 40 41 41 41 40 38 37 35 34 32 32 31 31 31 31 30 29 28 27 28 29 30 31 31 32 33 34 35 36 37 38 39 40 40 41 43 44 45 45 45 46 47 48 49 50 50 51 52 53 55 57 59 61 62 63 64 65 66 66 66 66 65 63 60 57 54 53 51 51 51 53 54
36 36 37 37 37 36 36 35 33 32 32 31 32 34 37 39 39 40 39 39 38 37 36 35 35 35 35 34 33 32 31 31 31 31 31 32 33 33 34 35 36 38 39 40 41 42 42 44 45 46 47 48 48 49 49 50 51 52 52 53 54 56 58 59 61 62 63 64 65 65 66 66 67 67 65 63 59 57 55 53 52 52 53 54 55
33 33 33 33 33 33 33 32 31 29 29 28 28 28 30 33 35 36 38 38 39 39 38 38 38 39 39 38 38 37 37 36 35 35 35 36 36 37 38 39 40 41 42 43 44 44 45 47 48 49 50 50 51 51 52 53 53 54 54 55 57 58 60 61 62 64 64 65 66 66 67 67 67 66 64 62 61 60 57 55 53 53 53 54 55
32 33 33 33 33 33 32 31 31 30 29 28 28 28 28 29 31 32 34 37 38 39 39 40 41 42 42 41 40 40 39 39 39 39 39 39 39 40 41 42 43 44 45 45 46 47 48 49 50 51 52 52 53 53 54 55 55 56 57 58 59 60 61 63 64 65 66 66 67 67 67 67 66 64 63 62 62 62 60 57 54 54 54 54 55
31 32 33 34 34 34 34 33 32 32 31 30 30 30 30 30 31 32 34 36 37 39 40 42 44 44 43 42 42 41 41 41 42 41 41 41 41 42 44 45 46 46 47 48 49 49 50 51 52 52 53 54 54 55 56 57 57 58 59 60 61 62 63 65 66 67 67 68 68 68 67 66 65 64 62 62 63 63 62 59 57 56 56 56 55
31 32 33 34 34 34 35 35 34 33 33 32 31 31 31 32 33 35 36 36 37 38 40 42 43 43 42 42 42 42 42 43 43 43 43 42 42 43 44 46 47 48 49 50 50 51 51 52 53 53 54 55 56 57 57 58 59 60 61 62 63 64 66 67 68 68 69 69 68 68 66 65 64 64 63 63 63 63 62 61 58 57 57 57 56
32 32 33 34 34 35 35 35 35 35 34 33 33 33 32 33 36 37 35 34 36 38 39 39 40 40 41 41 41 40 41 42 43 44 44 43 43 43 44 45 46 48 49 50 51 52 53 53 54 55 56 56 57 58 59 60 61 62 63 64 65 66 68 69 70 70 70 69 68 67 66 65 64 64 63 63 64 64 64 62 60 58 58 59 59
35 34 34 34 35 35 35 35 35 35 35 35 34 34 34 35 38 37 34 34 36 38 37 37 38 38 39 39 39 39 40 40 41 42 42 43 44 45 47 47 47 48 49 51 52 53 54 55 55 56 57 57 58 59 60 61 62 63 64 66 67 68 69 71 71 71 71 70 68 67 66 65 64 63 63 64 64 65 65 63 62 60 60 61 61
37 37 36 36 36 36 36 36 36 36 36 36 36 36 37 38 40 39 36 36 37 38 37 37 37 38 38 38 38 39 40 41 42 42 43 45 46 47 48 49 49 50 51 52 53 54 55 56 56 57 58 59 60 61 62 63 64 65 66 67 69 70 71 72 72 72 71 69 68 67 66 65 63 63 63 64 65 65 65 63 61 61 61 63 63
39 38 38 37 37 37 36 37 37 37 37 37 37 38 39 40 41 40 39 38 38 39 39 38 38 40 41 40 41 41 42 43 44 46 46 47 48 49 49 50 51 52 53 54 55 56 56 57 58 59 60 60 61 62 63 64 65 67 68 69 71 72 73 73 73 72 71 69 68 67 66 64 63 63 63 64 65 65 65 63 61 61 62 64 65
40 40 40 39 38 38 38 38 38 38 38 39 39 39 40 41 42 41 41 41 41 41 41 41 42 43 44 44 45 45 46 46 48 49 49 50 50 50 51 52 53 54 54 55 56 57 57 58 59 60 61 61 62 64 65 66 68 69 70 71 72 73 73 73 73 72 71 69 68 67 65 63 63 63 63 64 65 65 65 63 62 62 63 65 66
42 42 42 41 41 40 40 40 40 40 40 40 40 41 41 42 43 43 43 43 43 44 44 45 45 45 46 47 48 48 48 48 49 49 50 50 51 51 52 53 54 55 56 56 57 58 59 59 60 61 62 63 64 65 67 68 70 71 72 73 73 73 74 74 73 72 71 70 68 66 64 63 63 63 63 64 65 65 65 64 63 63 65 67 68
44 44 44 44 43 42 42 42 42 42 42 42 42 42 43 44 45 45 45 45 45 46 47 47 47 47 47 48 48 48 48 48 48 49 50 50 51 52 53 54 55 56 57 58 58 59 60 61 62 63 64 65 66 67 69 70 71 72 73 74 74 74 74 74 74 73 72 70 68 66 64 63 63 63 63 64 65 66 66 65 65 65 66 68 69
46 46 46 46 45 45 45 44 44 44 44 44 44 44 45 45 46 47 47 47 48 48 48 48 48 48 48 48 48 48 48 49 49 50 51 52 53 54 55 56 57 58 58 59 60 61 62 62 63 65 66 67 68 69 71 72 73 73 74 74 75 75 74 74 74 73 72 71 68 66 65 64 64 64 63 64 65 66 67 65 65 65 65 66 66
47 47 47 47 47 47 47 47 47 47 47 47 48 48 48 48 48 48 49 49 50 50 50 50 50 50 50 50 50 50 51 51 52 52 53 54 55 56 57 58 59 60 61 61 62 63 64 64 65 67 68 69 70 71 72 73 74 75 75 75 75 74 74 73 73 72 71 70 68 67 67 66 66 65 65 64 65 67 67 66 64 63 62 61 61
48 49 49 49 49 49 49 49 49 49 50 50 51 51 51 51 51 51 51 51 51 52 52 52 52 52 53 53 53 54 54 55 55 56 57 58 58 59 60 61 61 62 63 64 64 65 66 67 68 69 70 71 72 73 74 75 75 75 75 75 74 73 72 72 71 71 70 70 69 69 69 69 68 68 67 66 67 68 69 67 66 63 61 60 59
48 48 48 48 48 49 49 49 49 50 51 51 52 52 53 54 54 54 54 54 54 54 54 55 55 55 56 56 56 57 57 58 59 60 60 61 62 62 63 64 64 65 66 66 67 68 69 69 70 71 72 73 73 74 75 75 75 75 74 73 72 71 70 70 70 70 70 70 71 71 71 70 70 70 70 69 69 69 70 69 68 65 63 60 59
46 46 47 47 48 48 49 49 49 50 50 51 52 52 53 54 55 55 56 56 57 57 57 58 58 58 59 59 59 60 60 61 62 62 63 64 64 65 65 66 67 67 68 69 70 70 71 72 72 73 74 74 75 75 75 75 74 73 72 71 70 70 70 70 70 71 71 72 72 72 71 71 71 71 71 70 70 70 70 70 68 66 64 62 60
46 47 48 48 49 50 51 52 53 53 53 54 54 55 55 56 56 57 57 58 59 59 60 61 61 61 62 62 63 63 64 64 64 65 66 66 66 67 68 68 69 70 70 71 72 73 73 74 74 74 75 74 74 74 73 72 72 71 71 70 70 70 71 71 72 73 73 73 72 71 71 70 69 69 68 68 67 68 68 68 67 66 65 63 62
51 52 52 52 53 53 53 54 55 56 57 57 57 58 58 59 59 60 60 61 62 62 63 63 64 64 65 65 66 66 67 67 67 68 68 68 69 69 70 70 71 71 72 73 73 73 74 74 74 74 73 72 72 71 71 71 71 71 71 71 71 72 73 73 74 74 73 72 71 70 69 67 65 64 63 63 63 64 64 64 64 64 63 62 61
57 57 56 56 56 56 57 57 58 58 58 58 58 59 59 60 61 62 63 63 64 65 65 65 66 67 67 68 68 68 69 69 70 70 70 71 71 72 72 72 73 73 73 74 74 74 73 73 73 73 73 72 71 70 70 71 72 73 73 74 74 74 74 74 73 72 70 69 68 67 65 63 61 60 59 59 59 60 61 61 61 60 58 57 56
60 60 59 57 57 58 59 61 62 61 60 59 59 58 59 60 60 62 63 64 65 66 66 67 68 68 69 69 70 71 71 71 72 72 73 73 74 74 74 74 75 75 75 75 75 74 74 74 74 73 73 73 72 72 73 74 75 76 77 77 76 74 73 71 69 68 66 65 63 62 60 58 57 56 56 55 56 56 57 57 57 56 54 52 50
61 60 58 56 54 53 54 56 58 59 60 60 59 59 59 59 60 61 62 63 64 65 66 67 68 69 70 70 71 72 72 73 74 74 75 75 75 76 76 76 76 76 75 75 74 74 74 74 74 74 74 74 74 75 75 75 76 76 76 75 73 71 68 66 64 63 62 61 60 59 57 56 55 54 54 54 53 52 52 52 51 51 50 48 46
Wind_Direction
198 195 195 196 197 197 199 200 200 198 195 193 193 195 196 194 192 191 190 192 194 197 203 208 211 217 225 232 239 245 251 257 262 264 266 267 270 275 278 280 282 285 291 297 303 306 306 309 315 321 333 343 343 334 321 320 343 8 9 1 353 346 342 341 344 348 350 350 351 351 350 350 351 351 352 352 350 346 344 342 341 340 340 340 341
202 201 200 201 200 199 199 199 199 197 193 191 194 196 197 197 195 193 193 195 197 199 205 209 212 217 224 231 237 244 250 255 259 263 263 263 264 266 271 275 276 279 284 290 295 297 296 298 303 311 324 337 341 338 325 316 332 353 357 357 349 342 338 339 343 346 345 345 347 349 349 349 348 347 347 346 343 340 337 335 335 335 336 337 338
202 202 202 202 203 202 200 198 196 193 190 190 193 195 196 198 197 195 195 196 198 202 207 212 216 220 226 232 237 242 247 251 255 258 261 261 260 259 259 261 264 269 274 280 285 287 289 293 299 308 319 333 345 350 350 354 0 350 337 339 337 332 330 331 339 342 339 340 343 345 346 347 348 346 344 342 340 337 334 333 333 334 336 338 338
201 200 200 200 201 203 201 198 194 190 188 190 192 194 195 197 195 195 196 197 201 207 212 216 219 221 225 231 237 241 245 249 251 252 254 254 253 253 251 251 255 261 268 275 277 279 281 285 293 303 312 326 345 355 359 6 9 355 343 341 338 331 326 328 337 342 339 337 338 340 340 340 341 342 340 339 338 335 334 335 335 335 336 338 339
200 198 199 198 198 200 201 199 193 189 189 191 192 192 193 194 193 195 197 199 205 211 213 216 219 221 225 230 237 242 245 246 245 242 240 241 242 244 246 248 254 263 268 270 267 264 265 268 275 283 294 315 339 352 356 359 359 355 351 353 355 350 341 339 342 345 343 338 335 338 337 335 335 335 334 335 335 333 333 336 338 336 336 338 337
200 198 197 195 193 195 197 196 193 191 192 194 193 191 192 193 194 197 200 202 208 212 213 216 219 222 226 230 235 239 239 238 236 232 230 230 233 237 243 248 254 258 254 243 235 232 231 227 225 227 224 29 15 7 359 354 354 352 350 357 2 0 355 352 351 350 348 342 337 337 336 335 335 331 327 329 331 329 328 332 338 336 334 337 335
198 197 194 191 189 189 190 191 192 193 196 197 194 192 192 194 197 200 202 205 209 212 213 217 220 223 227 229 231 232 231 230 230 227 225 225 228 232 236 238 236 226 210 202 203 202 193 178 167 151 122 106 95 70 28 2 353 345 344 352 357 355 352 349 348 347 346 344 339 334 333 336 335 329 323 324 326 323 320 326 333 332 332 336 334
197 195 192 188 185 186 188 191 194 197 199 199 196 195 195 197 200 202 204 206 209 211 214 218 222 223 224 226 228 228 226 224 221 220 218 215 215 215 215 211 200 188 182 180 180 176 165 149 133 118 109 106 103 91 44 359 348 338 335 340 344 344 342 339 339 338 338 339 337 330 330 333 331 324 319 319 320 316 315 321 328 326 326 332 332
196 194 191 187 186 188 191 195 198 200 201 200 198 198 199 200 202 203 204 207 209 212 217 220 222 223 221 223 225 224 222 220 216 213 208 201 197 194 191 184 176 171 167 165 165 162 154 143 126 116 109 94 46 342 333 333 334 329 326 329 332 333 332 332 332 332 331 333 332 326 328 331 325 318 317 317 315 311 312 318 324 322 321 327 329
197 194 192 191 192 194 196 198 200 200 200 200 199 200 201 202 203 204 205 207 211 215 218 220 222 223 223 223 222 219 217 215 210 207 201 193 187 181 177 173 168 167 165 167 172 170 165 158 144 143 159 315 311 316 321 322 325 324 321 323 326 328 329 329 328 328 329 331 329 326 328 329 321 315 316 316 313 311 312 316 319 318 317 320 324
197 195 195 196 198 198 199 200 201 200 199 199 200 201 201 203 204 205 206 208 212 216 218 219 220 224 226 225 224 219 213 209 205 202 197 191 184 179 176 173 171 171 174 180 186 186 185 193 215 254 285 296 303 311 314 315 318 317 317 320 324 326 327 327 326 326 325 327 328 327 327 327 321 316 317 314 311 312 314 316 317 315 312 314 319
196 195 196 199 200 199 200 200 199 198 197 197 199 200 202 203 205 207 208 210 214 218 219 220 221 225 227 226 226 221 213 208 204 201 198 194 190 186 183 180 179 181 186 193 200 205 210 221 239 264 282 291 300 306 307 309 311 311 313 317 320 322 323 322 323 322 320 322 324 325 324 322 319 318 316 312 311 314 316 315 314 311 309 312 316
194 193 195 198 198 197 198 198 196 196 196 197 199 201 203 205 207 209 211 213 216 219 222 223 224 226 227 225 225 221 214 208 206 205 204 201 200 198 194 191 191 192 197 204 213 222 229 236 248 265 277 286 294 298 301 304 305 307 310 312 315 317 316 317 319 317 316 317 319 321 320 317 317 316 311 310 313 314 313 312 310 308 308 310 313
190 189 191 194 195 195 196 196 195 197 198 200 202 204 206 208 211 214 216 217 217 220 225 228 228 228 227 226 225 223 218 212 209 210 211 210 209 208 205 203 202 204 207 212 218 226 233 241 252 266 276 284 289 292 295 298 299 301 305 307 309 309 309 313 314 312 312 312 314 316 314 313 315 315 311 311 314 313 311 309 307 306 307 308 310
185 186 189 193 194 195 195 197 199 201 204 207 209 210 212 215 218 221 223 223 222 223 226 229 231 230 227 226 226 224 221 217 215 216 218 219 218 215 212 209 209 212 217 220 225 231 236 243 253 263 273 280 285 287 289 290 291 295 297 298 297 297 300 303 303 304 307 307 308 310 309 309 312 314 312 312 312 311 310 309 307 306 305 305 304
179 181 185 187 188 190 191 194 198 202 206 210 212 214 216 219 221 224 226 227 227 228 228 229 231 231 227 226 227 226 224 221 221 223 225 226 225 222 218 215 214 218 224 227 231 236 241 247 253 261 270 278 282 283 284 285 288 291 292 292 291 292 295 295 295 299 301 300 302 305 305 306 309 311 311 310 309 308 306 305 306 304 301 298 297
177 179 182 183 185 188 191 193 197 202 206 209 212 215 217 219 223 225 227 229 230 232 231 229 229 229 228 227 226 225 226 225 224 227 231 232 230 228 224 222 221 224 227 231 235 238 244 250 256 262 269 276 280 281 283 285 289 291 293 294 294 295 296 294 294 296 297 299 302 304 305 306 307 309 309 308 307 305 301 301 301 298 293 291 290
180 181 186 191 194 195 198 199 202 205 209 211 215 219 221 222 225 228 229 231 232 234 233 231 229 229 229 227 224 223 225 226 226 228 234 236 235 232 229 227 228 229 230 233 236 239 244 251 258 265 270 274 277 279 282 286 290 293 294 295 297 298 295 291 291 293 295 298 302 304 306 307 306 309 312 312 311 309 306 306 302 296 292 292 292
188 189 193 198 201 204 206 207 209 211 215 218 221 224 226 227 230 231 231 231 233 236 237 235 232 230 229 228 226 224 226 228 228 229 233 237 237 236 234 231 231 232 234 235 238 240 244 252 261 267 270 272 276 279 282 287 293 295 296 298 301 300 293 289 290 290 290 295 299 305 309 308 306 311 316 315 313 310 308 308 303 297 297 299 301
195 197 198 199 203 208 210 212 215 217 220 224 226 229 231 232 234 237 237 235 234 236 239 239 237 233 231 230 229 227 227 230 232 233 235 238 239 239 238 236 235 237 239 240 243 246 251 258 265 269 272 275 279 282 286 291 295 296 298 301 303 300 294 290 289 286 287 294 303 308 311 310 310 314 316 314 311 307 307 306 303 300 302 305 309
197 200 201 200 202 207 211 215 218 221 223 226 228 230 233 236 239 242 245 243 240 238 238 239 239 237 234 233 233 232 231 232 236 238 239 240 241 242 242 241 241 242 243 244 247 252 257 263 267 270 274 277 281 284 288 290 293 296 300 301 302 300 294 290 289 287 290 299 303 305 308 311 312 313 312 309 306 303 303 303 303 303 306 310 313
198 199 201 202 203 206 209 213 218 223 227 230 232 234 236 239 242 245 247 247 245 243 241 239 237 237 236 234 234 234 235 236 239 242 243 244 243 244 244 243 244 245 245 246 250 254 257 262 265 268 271 274 277 280 283 287 291 296 299 299 300 299 295 293 293 294 299 305 305 304 305 307 308 307 306 304 303 301 301 302 303 304 305 308 309
199 200 202 204 206 207 208 211 216 221 225 230 233 237 239 242 244 247 248 247 245 244 245 243 239 237 237 236 235 235 236 238 240 243 244 244 244 243 243 242 243 244 245 247 250 253 256 259 262 264 266 269 272 276 280 284 288 292 295 296 298 300 299 298 298 299 304 308 307 304 304 305 306 307 307 306 304 304 305 305 304 305 305 305 305
205 205 206 207 209 210 211 213 216 219 222 226 229 233 237 241 244 246 247 248 245 244 246 247 244 241 239 240 240 239 239 240 242 243 244 243 242 241 241 240 242 244 246 247 250 252 255 258 260 262 265 268 272 276 280 284 287 290 293 296 298 300 301 300 299 301 306 308 306 305 307 309 311 313 313 312 311 310 310 309 307 307 307 306 306
211 212 213 214 215 216 217 218 219 220 222 225 227 229 233 237 241 243 245 246 245 244 244 246 247 246 243 242 243 243 243 243 244 244 245 244 243 242 241 242 243 245 247 249 252 255 257 258 260 263 267 271 275 279 282 284 287 289 292 294 296 298 300 301 301 303 307 308 306 307 310 312 314 316 316 316 315 315 315 313 311 310 309 308 306
210 212 214 216 218 219 220 222 223 223 224 225 226 228 231 234 237 240 243 244 243 242 242 244 247 248 248 247 246 245 245 245 244 244 245 245 245 245 244 244 245 247 249 251 254 256 258 260 262 265 270 274 277 280 282 284 287 290 291 293 295 297 299 301 303 305 307 307 307 309 311 313 316 317 316 315 315 316 315 313 311 311 310 309 308
211 213 214 216 217 219 220 222 224 225 226 226 226 228 230 232 235 238 241 243 243 241 241 243 245 248 250 250 250 249 247 246 246 245 244 245 245 245 245 246 247 249 251 253 255 258 259 261 263 267 272 276 279 281 283 285 288 290 292 294 296 297 299 301 303 305 307 309 310 311 313 314 316 317 316 315 315 315 313 311 310 310 310 308 308
214 216 217 218 219 219 220 222 225 227 228 229 229 229 230 231 232 235 237 240 241 241 241 242 244 246 248 249 250 251 250 249 248 247 245 245 245 245 246 248 249 251 252 253 256 259 261 264 267 271 275 278 280 282 284 287 289 291 293 295 297 298 300 301 303 305 308 310 312 314 315 316 316 317 317 316 316 316 313 310 310 310 308 307 307
217 219 220 222 223 223 224 226 228 230 232 233 234 234 233 233 232 233 234 236 238 239 240 241 242 244 246 247 248 249 250 250 249 249 248 248 247 247 248 250 251 253 254 256 258 261 265 268 271 275 278 281 283 284 286 288 290 292 293 295 296 298 299 301 302 305 307 309 312 314 315 316 316 317 317 316 316 316 314 312 310 310 309 309 309
219 220 222 223 224 226 227 228 228 230 233 234 235 236 236 236 236 235 234 234 235 237 239 240 241 243 245 246 248 249 249 249 249 250 251 251 252 253 253 254 256 257 258 260 262 265 268 271 274 277 280 282 284 285 287 288 290 292 293 295 296 297 299 301 302 304 306 309 311 313 314 315 315 316 315 315 315 316 315 313 312 311 311 311 311
219 220 221 223 224 225 227 228 229 232 234 235 236 236 236 237 238 238 237 237 237 239 239 240 242 243 245 246 247 248 249 250 251 251 252 253 254 255 256 258 259 261 262 264 266 268 270 272 275 277 280 282 283 285 287 288 290 291 293 294 295 297 299 301 302 304 306 308 311 312 313 314 314 314 313 314 315 315 315 313 311 310 311 311 311
218 219 220 222 224 226 228 229 231 234 237 238 238 239 238 239 239 240 240 241 241 242 242 242 243 245 247 248 249 251 252 253 254 255 256 257 258 259 260 260 261 262 264 266 268 269 271 273 275 277 279 281 282 284 286 288 289 291 292 293 295 297 299 300 302 304 306 308 310 311 312 313 313 313 312 313 314 314 314 313 311 311 312 312 313
222 221 221 222 224 226 229 230 232 235 237 239 240 241 241 242 243 242 242 242 243 244 245 245 245 247 250 252 254 255 257 258 259 259 260 261 262 262 262 262 262 263 265 266 268 270 271 273 275 277 278 280 282 283 285 287 289 290 292 294 295 296 298 300 302 304 306 308 309 310 311 312 312 312 312 313 313 313 313 312 312 312 313 313 313
228 227 225 225 226 228 230 232 234 236 238 240 241 242 243 244 245 245 244 245 246 247 247 247 248 250 252 253 254 256 258 260 261 262 262 262 261 261 262 263 264 264 265 266 268 269 271 273 274 276 278 280 282 283 285 287 289 290 292 294 295 297 299 301 303 304 306 307 308 310 311 312 312 312 312 312 312 312 312 312 312 311 311 312 313
234 233 232 230 230 231 232 234 236 238 240 242 243 244 245 246 248 248 248 250 252 253 253 253 255 256 257 258 259 260 261 263 264 264 264 263 263 263 264 264 265 265 266 267 268 269 271 272 274 276 278 280 281 283 285 286 288 290 292 294 296 298 300 301 303 304 305 306 308 311 312 312 312 311 312 312 311 312 312 312 311 310 310 311 313
240 239 238 237 236 235 236 236 237 239 241 242 244 246 247 249 252 252 251 251 252 254 256 258 260 260 261 262 263 262 262 263 264 264 264 263 263 263 263 263 263 265 267 269 270 270 271 273 275 277 278 280 281 283 285 287 289 291 292 294 296 298 299 300 301 303 304 307 309 311 311 311 311 311 311 312 312 312 312 311 311 310 310 311 313
244 244 243 242 241 240 240 240 240 241 242 243 245 247 249 251 253 255 256 255 254 255 257 258 258 259 260 262 262 260 260 261 262 261 261 261 262 263 264 264 265 267 269 270 271 271 272 274 276 277 279 280 282 284 286 288 289 291 293 295 296 297 298 299 301 302 305 307 310 311 311 310 310 310 311 312 312 311 311 311 310 310 310 310 312
247 247 247 247 247 246 245 245 244 244 245 245 246 248 249 251 254 256 258 257 257 257 257 256 255 255 256 257 258 259 260 260 260 259 260 261 262 263 265 266 267 268 269 270 271 272 273 275 277 279 280 282 284 285 287 289 290 292 293 295 296 297 298 299 301 303 306 308 309 310 310 310 310 311 311 311 311 311 311 311 311 310 309 309 310
250 250 249 249 249 249 249 249 249 248 248 248 248 249 250 252 254 256 257 257 257 257 257 256 254 254 255 256 256 257 259 259 259 260 261 263 264 265 266 267 268 269 270 271 272 273 275 277 279 281 282 284 285 287 288 289 291 292 293 294 295 296 298 300 302 304 306 308 309 309 309 309 310 310 310 310 311 311 311 311 310 310 308 308 309
249 250 250 250 250 250 250 251 251 251 251 252 251 251 252 254 255 255 256 256 257 257 257 257 256 256 256 257 257 258 260 260 261 262 264 265 267 267 268 269 270 271 272 273 275 276 278 280 281 283 284 285 286 287 288 289 290 291 292 294 295 297 298 300 302 304 306 307 307 308 308 308 308 308 308 309 310 310 310 309 309 309 309 308 308
247 248 249 250 250 250 251 251 252 252 253 253 253 253 254 255 256 256 256 256 257 257 258 259 259 259 259 260 261 261 262 263 264 265 266 267 268 269 270 271 272 273 275 276 277 279 280 281 283 283 284 285 286 287 288 289 290 291 293 294 296 297 299 301 303 304 305 306 306 306 306 306 306 306 306 307 308 309 309 309 309 309 309 309 308
246 246 247 248 249 250 251 252 253 253 254 254 255 255 255 255 256 257 257 258 258 259 259 260 261 262 262 263 264 265 265 266 266 267 267 268 268 269 271 272 273 275 276 277 278 280 281 282 282 283 284 285 286 287 288 289 290 291 293 295 296 298 300 301 302 303 304 305 305 305 304 303 303 303 303 305 307 307 307 307 307 308 309 308 308
247 246 246 246 247 248 250 251 252 253 254 255 256 257 257 257 257 257 258 259 259 260 261 262 262 263 264 265 266 266 267 267 268 268 269 269 270 271 272 273 274 275 276 277 279 280 280 281 282 283 284 285 286 287 288 289 291 292 294 295 297 298 300 301 302 303 303 304 303 303 303 302 301 301 301 302 304 305 304 304 304 304 306 307 306
247 247 247 247 247 248 249 250 251 252 254 255 256 257 257 258 259 259 260 260 261 261 262 262 263 264 265 266 267 267 268 269 269 270 270 271 272 273 273 274 275 276 277 278 279 280 280 281 282 283 284 285 287 288 289 290 291 293 294 295 297 298 299 301 302 302 303 303 302 302 301 301 300 300 300 301 302 302 303 303 302 302 304 305 307
243 244 245 246 247 248 248 249 251 252 253 254 256 257 258 259 260 261 262 263 264 264 265 265 266 266 267 267 268 269 269 270 271 272 272 273 274 275 276 276 277 278 278 279 280 280 281 282 283 284 285 286 287 288 289 290 291 292 294 296 297 298 299 301 301 301 301 301 301 300 301 300 301 301 301 301 302 302 302 302 302 302 302 304 307
242 243 245 246 247 248 249 251 252 253 254 255 256 258 259 260 261 262 264 265 266 267 267 268 269 269 269 269 270 270 270 271 271 272 273 274 274 275 276 277 277 278 279 279 280 281 281 282 283 284 285 286 287 287 289 290 291 293 295 296 298 299 299 300 300 299 299 299 300 300 301 301 301 302 302 302 302 302 303 302 302 302 301 302 305
248 249 251 252 253 254 255 256 256 256 257 257 258 259 259 260 261 262 263 263 264 265 266 267 268 268 269 270 270 271 271 272 272 273 273 274 274 275 275 276 276 277 278 278 279 280 281 282 283 283 284 285 287 288 290 292 293 294 295 296 297 297 298 297 297 298 298 299 300 300 300 301 301 301 301 302 302 302 302 301 301 300 300 301 302
259 260 260 260 259 259 258 258 258 258 258 258 258 259 259 260 260 261 262 262 263 264 264 265 266 267 268 269 269 270 271 271 272 273 273 274 275 275 275 276 276 277 278 278 279 280 281 282 283 284 286 287 289 291 292 293 294 294 295 295 295 295 296 296 297 297 298 298 298 298 298 299 299 299 300 300 301 301 301 300 300 300 300 301 302
264 265 265 264 263 262 260 259 258 258 258 258 258 258 258 259 260 260 261 262 262 263 263 264 265 266 267 268 269 269 270 271 272 273 274 274 275 275 276 277 277 278 278 279 280 281 282 283 285 286 288 289 291 292 292 293 293 293 293 293 293 294 295 295 296 296 296 296 296 296 296 297 298 298 298 299 299 298 298 298 298 299 300 301 303
266 266 266 266 266 264 262 259 257 256 256 256 257 257 257 258 259 260 260 261 262 262 263 264 265 266 267 267 268 269 270 271 272 273 273 274 275 276 276 277 278 279 279 280 281 283 284 285 287 288 289 290 291 291 291 292 292 292 292 292 293 293 294 294 294 293 293 293 294 294 295 296 297 297 297 296 296 296 296 296 297 298 299 300 302
265 265 264 264 263 261 259 258 257 256 255 256 256 257 258 259 259 260 260 261 262 262 263 264 265 266 266 267 268 269 269 270 271 272 273 274 275 275 276 277 278 279 280 281 282 284 285 286 287 288 289 289 290 290 290 290 291 291 291 292 292 292 292 291 291 291 291 292 292 293 294 295 295 295 295 295 294 295 296 296 297 299 300 302 302
Height
5901 5903 5905 5907 5910 5912 5914 5916 5918 5919 5922 5924 5926 5927 5929 5930 5931 5932 5933 5934 5935 5936 5937 5939 5939 5940 5940 5941 5941 5942 5942 5943 5943 5944 5945 5946 5946 5946 5947 5947 5947 5947 5947 5947 5947 5947 5947 5947 5946 5946 5946 5946 5946 5946 5946 5946 5946 5947 5947 5946 5945 5945 5944 5944 5943 5943 5943 5943 5942 5941 5940 5939 5938 5938 5937 5936 5935 5934 5933 5932 5931 5930 5929 5927 5926
5900 5902 5904 5906 5908 5910 5912 5914 5916 5918 5921 5923 5925 5926 5928 5929 5931 5932 5933 5934 5934 5935 5936 5937 5938 5939 5939 5940 5940 5940 5941 5941 5942 5943 5944 5944 5945 5946 5946 5946 5946 5946 5946 5946 5946 5946 5946 5945 5945 5945 5945 5945 5945 5945 5945 5945 5946 5946 5945 5945 5944 5944 5944 5943 5943 5942 5942 5941 5941 5940 5940 5939 5938 5937 5936 5935 5934 5933 5933 5932 5931 5929 5928 5927 5925
5898 5900 5902 5905 5907 5908 5910 5912 5914 5917 5919 5921 5923 5925 5927 5928 5930 5931 5932 5933 5934 5935 5935 5936 5937 5938 5938 5938 5939 5939 5939 5940 5940 5941 5942 5943 5943 5944 5945 5945 5945 5945 5945 5945 5945 5945 5944 5944 5944 5944 5944 5944 5944 5944 5944 5944 5944 5944 5944 5944 5943 5943 5943 5942 5942 5942 5941 5940 5939 5939 5938 5938 5937 5936 5936 5935 5934 5933 5932 5931 5930 5928 5927 5926 5924
5896 5898 5900 5902 5904 5906 5908 5911 5913 5915 5917 5919 5921 5923 5925 5927 5929 5930 5931 5932 5933 5934 5935 5936 5936 5937 5937 5937 5937 5937 5938 5938 5939 5939 5940 5941 5941 5942 5943 5943 5943 5944 5944 5944 5944 5944 5943 5943 5943 5943 5943 5942 5942 5942 5942 5942 5942 5942 5942 5942 5942 5942 5941 5941 5941 5941 5940 5939 5938 5938 5937 5936 5935 5935 5934 5934 5933 5932 5931 5930 5929 5927 5926 5924 5923
5893 5896 5898 5900 5902 5905 5907 5910 5912 5914 5916 5918 5920 5922 5923 5925 5927 5928 5930 5931 5932 5933 5934 5935 5935 5935 5935 5935 5936 5936 5936 5936 5937 5938 5938 5939 5940 5940 5941 5941 5942 5942 5942 5942 5942 5942 5942 5942 5942 5942 5942 5942 5941 5941 5941 5941 5941 5940 5940 5940 5941 5940 5940 5940 5940 5940 5939 5938 5937 5937 5936 5935 5934 5933 5932 5932 5931 5930 5929 5928 5927 5926 5924 5923 5921
5891 5894 5896 5898 5901 5903 5906 5909 5911 5913 5915 5916 5918 5920 5922 5924 5925 5927 5928 5929 5930 5931 5932 5933 5934 5934 5934 5934 5934 5934 5934 5935 5935 5936 5937 5937 5938 5938 5939 5940 5940 5940 5941 5941 5941 5941 5941 5941 5941 5941 5941 5941 5941 5940 5940 5939 5939 5939 5939 5939 5939 5939 5939 5939 5938 5938 5938 5937 5936 5935 5935 5934 5933 5932 5930 5929 5928 5927 5926 5925 5925 5924 5923 5921 5919
5890 5892 5894 5896 5899 5902 5905 5908 5910 5912 5913 5915 5916 5918 5920 5922 5924 5925 5927 5928 5929 5930 5931 5932 5932 5932 5932 5933 5932 5932 5933 5933 5934 5934 5935 5936 5936 5937 5937 5938 5938 5939 5939 5939 5939 5939 5940 5940 5940 5940 5940 5940 5940 5940 5939 5939 5938 5938 5938 5938 5938 5937 5937 5937 5937 5936 5936 5936 5935 5934 5933 5932 5931 5930 5929 5927 5926 5925 5923 5922 5922 5921 5920 5919 5917
5889 5891 5893 5895 5898 5901 5903 5906 5908 5910 5911 5913 5915 5917 5919 5920 5922 5923 5925 5926 5927 5928 5929 5930 5930 5931 5931 5931 5931 5931 5931 5932 5932 5933 5934 5934 5935 5935 5936 5937 5937 5938 5938 5938 5938 5938 5939 5939 5939 5939 5940 5940 5939 5939 5939 5938 5938 5937 5937 5937 5937 5937 5936 5936 5935 5935 5934 5934 5933 5932 5931 5931 5929 5928 5927 5926 5925 5923 5921 5919 5919 5918 5916 5916 5915
5888 5890 5893 5895 5897 5899 5901 5903 5905 5907 5909 5911 5913 5915 5917 5919 5920 5921 5923 5924 5925 5926 5927 5928 5929 5930 5930 5930 5930 5930 5930 5930 5931 5931 5932 5933 5934 5934 5935 5935 5936 5937 5937 5937 5937 5937 5938 5938 5938 5939 5939 5939 5938 5938 5938 5938 5938 5937 5937 5936 5936 5936 5935 5935 5934 5933 5933 5932 5932 5931 5930 5929 5928 5926 5925 5924 5922 5921 5919 5917 5917 5915 5913 5913 5912
5887 5889 5892 5894 5895 5897 5899 5901 5903 5905 5907 5910 5912 5913 5915 5917 5918 5920 5921 5922 5923 5924 5926 5927 5928 5928 5928 5928 5928 5928 5929 5929 5929 5930 5931 5932 5932 5933 5934 5934 5935 5935 5936 5936 5936 5937 5937 5937 5938 5938 5938 5938 5937 5937 5937 5936 5936 5936 5935 5935 5935 5935 5934 5933 5933 5932 5931 5931 5930 5929 5928 5928 5926 5924 5923 5922 5919 5918 5917 5915 5914 5913 5911 5910 5910
5885 5888 5890 5892 5893 5895 5897 5899 5901 5903 5906 5907 5909 5911 5913 5915 5917 5918 5919 5920 5921 5922 5924 5925 5926 5926 5926 5927 5927 5927 5927 5927 5928 5928 5929 5930 5931 5932 5932 5933 5934 5934 5935 5935 5935 5936 5936 5937 5937 5937 5937 5936 5936 5936 5935 5935 5935 5934 5934 5933 5933 5933 5932 5932 5931 5930 5929 5929 5928 5927 5926 5926 5924 5922 5921 5919 5917 5915 5914 5913 5911 5910 5908 5907 5908
5884 5886 5888 5890 5892 5894 5896 5897 5900 5902 5904 5905 5907 5909 5911 5913 5915 5916 5917 5918 5919 5920 5922 5923 5924 5925 5925 5925 5925 5925 5926 5926 5926 5927 5927 5928 5929 5930 5931 5931 5932 5933 5933 5933 5934 5934 5935 5936 5936 5936 5935 5935 5934 5934 5934 5933 5933 5932 5932 5931 5931 5931 5930 5930 5929 5928 5927 5926 5926 5925 5924 5923 5922 5920 5918 5916 5914 5912 5911 5910 5908 5907 5905 5904 5904
5882 5885 5887 5889 5891 5893 5894 5896 5898 5900 5902 5903 5905 5907 5909 5911 5913 5914 5915 5916 5917 5919 5920 5921 5922 5923 5924 5924 5924 5924 5924 5924 5924 5925 5925 5926 5927 5928 5929 5930 5930 5931 5932 5932 5933 5933 5934 5934 5934 5934 5934 5933 5933 5933 5932 5932 5931 5930 5929 5929 5929 5929 5928 5927 5927 5926 5925 5924 5923 5923 5922 5919 5919 5918 5915 5912 5911 5909 5908 5906 5904 5903 5902 5901 5901
5881 5883 5885 5887 5889 5891 5893 5895 5897 5899 5900 5902 5903 5905 5907 5909 5911 5912 5913 5914 5916 5917 5918 5919 5921 5921 5922 5922 5922 5922 5923 5923 5923 5923 5924 5924 5925 5926 5927 5928 5929 5930 5930 5931 5931 5932 5932 5933 5933 5933 5932 5932 5932 5931 5931 5930 5929 5928 5928 5927 5927 5927 5926 5925 5924 5923 5922 5921 5920 5920 5919 5916 5915 5915 5912 5909 5908 5906 5904 5903 5901 5899 5898 5898 5898
5879 5882 5884 5886 5888 5890 5892 5894 5896 5898 5899 5901 5902 5904 5906 5907 5908 5909 5910 5912 5914 5915 5916 5918 5919 5920 5920 5920 5920 5921 5921 5921 5921 5922 5922 5923 5924 5925 5926 5927 5928 5928 5929 5929 5930 5930 5931 5931 5931 5931 5931 5930 5930 5929 5929 5927 5926 5926 5926 5925 5925 5924 5924 5923 5922 5920 5919 5917 5916 5917 5916 5913 5912 5911 5910 5907 5904 5903 5901 5899 5897 5895 5894 5894 5893
5878 5881 5883 5885 5887 5889 5891 5893 5895 5896 5898 5899 5901 5903 5904 5905 5906 5907 5908 5909 5911 5912 5914 5916 5917 5917 5918 5918 5919 5919 5919 5920 5920 5920 5920 5921 5922 5924 5925 5925 5926 5927 5927 5928 5928 5928 5929 5929 5929 5929 5929 5928 5928 5927 5926 5924 5924 5924 5923 5922 5922 5921 5921 5920 5918 5917 5916 5914 5913 5912 5911 5911 5909 5908 5907 5904 5901 5899 5896 5894 5893 5890 5888 5888 5888
5877 5880 5882 5884 5886 5888 5890 5892 5893 5895 5897 5898 5900 5901 5902 5903 5904 5904 5906 5907 5908 5910 5912 5913 5914 5914 5915 5916 5917 5917 5917 5918 5918 5918 5918 5919 5921 5922 5923 5924 5924 5925 5926 5926 5926 5927 5927 5927 5927 5927 5927 5926 5925 5924 5923 5921 5921 5920 5920 5919 5918 5918 5918 5917 5915 5914 5913 5911 5910 5909 5907 5907 5906 5905 5903 5900 5897 5893 5889 5888 5888 5882 5878 5879 5881
5876 5878 5881 5883 5885 5887 5889 5891 5892 5894 5895 5897 5898 5899 5900 5901 5901 5902 5904 5905 5906 5907 5908 5909 5910 5912 5913 5914 5915 5915 5914 5915 5915 5916 5916 5917 5918 5920 5921 5921 5922 5923 5924 5924 5924 5925 5925 5925 5925 5925 5924 5924 5922 5921 5920 5918 5918 5918 5916 5915 5915 5915 5914 5912 5911 5911 5910 5909 5908 5906 5904 5903 5901 5900 5898 5895 5891 5886 5881 5882 5880 5872 5868 5871 5874
5875 5877 5879 5881 5883 5885 5887 5889 5891 5892 5894 5895 5896 5897 5897 5898 5899 5900 5901 5903 5904 5904 5905 5906 5908 5909 5910 5911 5912 5912 5912 5912 5912 5913 5914 5914 5916 5917 5918 5918 5920 5921 5921 5922 5922 5922 5923 5923 5923 5922 5921 5921 5919 5919 5917 5916 5915 5914 5913 5911 5911 5911 5909 5907 5907 5907 5907 5906 5906 5904 5902 5899 5896 5895 5894 5890 5885 5880 5875 5873 5871 5866 5865 5869 5872
5872 5874 5876 5879 5881 5883 5885 5887 5889 5890 5891 5892 5893 5894 5895 5896 5897 5898 5899 5900 5901 5902 5903 5904 5905 5906 5907 5908 5909 5910 5910 5909 5910 5911 5911 5912 5913 5913 5914 5916 5918 5918 5918 5918 5919 5920 5920 5920 5920 5919 5918 5917 5917 5916 5914 5913 5912 5911 5909 5907 5907 5905 5902 5901 5900 5900 5901 5903 5903 5901 5899 5896 5893 5892 5889 5885 5881 5876 5871 5868 5866 5866 5866 5867 5869
5869 5872 5874 5876 5878 5881 5882 5884 5886 5887 5888 5889 5890 5891 5892 5893 5894 5896 5897 5897 5898 5899 5900 5901 5902 5903 5904 5905 5906 5906 5907 5907 5907 5908 5909 5909 5910 5910 5911 5913 5915 5915 5915 5915 5916 5917 5917 5917 5916 5916 5915 5914 5913 5912 5911 5910 5908 5907 5906 5904 5902 5899 5896 5893 5892 5895 5901 5904 5902 5899 5896 5894 5891 5890 5887 5883 5879 5876 5873 5869 5866 5864 5862 5861 5861
5865 5868 5870 5873 5875 5877 5879 5881 5883 5884 5885 5886 5887 5889 5890 5891 5892 5893 5894 5895 5896 5897 5897 5898 5899 5900 5901 5901 5902 5903 5904 5904 5905 5905 5906 5906 5907 5907 5908 5910 5911 5911 5911 5912 5913 5914 5914 5914 5913 5913 5912 5911 5911 5909 5908 5907 5905 5905 5904 5901 5898 5894 5888 5885 5886 5892 5899 5901 5898 5896 5894 5892 5890 5889 5886 5882 5878 5875 5873 5869 5864 5861 5858 5857 5856
5861 5864 5866 5869 5871 5873 5875 5877 5879 5880 5882 5883 5884 5885 5886 5888 5889 5890 5891 5892 5893 5894 5894 5895 5896 5897 5897 5898 5899 5900 5901 5901 5902 5902 5903 5903 5903 5904 5905 5907 5907 5907 5908 5909 5910 5910 5911 5910 5910 5909 5909 5908 5908 5907 5906 5904 5903 5902 5901 5898 5895 5891 5884 5878 5877 5884 5892 5894 5892 5890 5889 5886 5885 5884 5882 5878 5874 5871 5869 5865 5860 5857 5853 5852 5850
5858 5860 5863 5865 5867 5869 5871 5873 5875 5877 5878 5879 5881 5882 5883 5884 5885 5887 5888 5889 5890 5891 5892 5892 5893 5893 5894 5895 5896 5896 5897 5897 5898 5899 5900 5900 5900 5901 5902 5903 5903 5904 5905 5906 5906 5906 5907 5907 5906 5905 5905 5904 5904 5903 5903 5901 5900 5899 5897 5894 5892 5889 5884 5875 5869 5873 5883 5887 5883 5882 5881 5879 5878 5876 5874 5871 5867 5865 5864 5859 5853 5850 5847 5843 5841
5855 5857 5859 5862 5864 5866 5867 5869 5871 5873 5874 5876 5877 5879 5879 5880 5881 5883 5884 5886 5887 5888 5889 5889 5890 5890 5891 5891 5892 5892 5893 5893 5894 5895 5896 5896 5897 5898 5899 5900 5900 5900 5901 5902 5902 5902 5903 5902 5902 5901 5901 5900 5900 5900 5899 5897 5896 5894 5893 5891 5888 5886 5883 5876 5866 5865 5872 5876 5873 5872 5872 5871 5870 5868 5865 5861 5858 5856 5854 5849 5844 5841 5838 5834 5831
5851 5853 5856 5858 5860 5862 5864 5865 5867 5869 5870 5871 5873 5874 5875 5876 5878 5879 5880 5882 5883 5884 5885 5886 5887 5887 5887 5888 5888 5888 5888 5889 5891 5892 5892 5893 5894 5895 5895 5896 5896 5896 5897 5898 5898 5898 5898 5898 5897 5897 5897 5896 5896 5895 5894 5893 5892 5890 5888 5886 5884 5882 5879 5875 5867 5862 5863 5865 5865 5864 5863 5862 5862 5861 5858 5854 5851 5850 5846 5841 5836 5833 5830 5826 5822
5847 5849 5851 5853 5855 5857 5859 5861 5862 5864 5865 5866 5867 5869 5871 5872 5874 5875 5877 5878 5879 5881 5882 5883 5883 5884 5884 5884 5884 5884 5885 5886 5888 5888 5889 5889 5890 5891 5891 5892 5892 5892 5893 5894 5893 5893 5893 5893 5893 5893 5892 5892 5891 5890 5889 5888 5887 5885 5883 5881 5879 5877 5874 5871 5866 5860 5857 5856 5857 5856 5854 5853 5853 5853 5851 5848 5845 5844 5841 5835 5830 5827 5825 5820 5815
5844 5846 5848 5849 5851 5853 5854 5856 5857 5858 5860 5861 5863 5865 5866 5868 5869 5871 5872 5873 5875 5876 5877 5878 5879 5880 5880 5881 5881 5881 5882 5884 5885 5885 5885 5886 5886 5887 5887 5888 5888 5889 5889 5889 5889 5889 5889 5888 5888 5888 5888 5887 5886 5885 5884 5883 5881 5880 5878 5876 5874 5871 5868 5865 5863 5859 5855 5852 5850 5848 5847 5845 5844 5843 5841 5839 5837 5836 5834 5829 5824 5822 5820 5816 5811
5840 5842 5844 5845 5847 5848 5850 5851 5853 5854 5856 5857 5859 5861 5862 5863 5865 5866 5867 5869 5870 5871 5873 5874 5875 5875 5876 5877 5877 5878 5880 5881 5881 5881 5882 5882 5883 5883 5884 5884 5884 5884 5885 5885 5884 5884 5884 5883 5883 5883 5882 5881 5881 5880 5879 5877 5876 5874 5872 5870 5868 5866 5863 5860 5858 5855 5852 5849 5846 5844 5841 5839 5836 5834 5831 5829 5828 5827 5825 5822 5819 5816 5813 5810 5806
5836 5838 5840 5842 5843 5845 5846 5848 5849 5851 5852 5854 5855 5857 5858 5859 5860 5861 5863 5864 5865 5866 5868 5869 5870 5871 5871 5872 5873 5874 5875 5876 5877 5878 5878 5879 5879 5880 5880 5880 5880 5880 5880 5880 5879 5879 5879 5879 5878 5878 5877 5876 5875 5874 5873 5871 5870 5868 5867 5865 5862 5860 5858 5855 5852 5850 5847 5844 5842 5839 5836 5833 5830 5826 5823 5820 5819 5818 5817 5814 5812 5809 5806 5803 5800
5833 5834 5836 5838 5839 5841 5842 5844 5845 5847 5848 5850 5851 5852 5853 5855 5856 5857 5858 5859 5860 5861 5863 5864 5865 5866 5867 5868 5869 5870 5871 5872 5873 5873 5874 5875 5875 5875 5876 5876 5876 5875 5875 5874 5874 5874 5874 5873 5873 5872 5871 5870 5869 5868 5866 5865 5864 5862 5861 5859 5856 5854 5852 5849 5847 5844 5842 5840 5837 5835 5831 5828 5824 5820 5816 5813 5811 5809 5808 5806 5804 5801 5799 5796 5793
5830 5831 5832 5834 5835 5837 5838 5840 5842 5843 5845 5846 5847 5848 5849 5850 5851 5852 5854 5855 5855 5856 5858 5859 5860 5861 5862 5863 5864 5866 5867 5867 5868 5868 5869 5870 5870 5871 5871 5871 5871 5870 5870 5869 5869 5869 5868 5868 5867 5866 5865 5864 5862 5861 5860 5858 5857 5856 5854 5852 5850 5848 5846 5843 5841 5838 5836 5835 5832 5829 5826 5822 5819 5815 5811 5807 5804 5802 5800 5798 5796 5794 5791 5789 5786
5826 5828 5829 5831 5832 5833 5834 5836 5838 5839 5841 5842 5843 5844 5845 5846 5847 5848 5849 5849 5851 5852 5854 5854 5855 5856 5858 5860 5861 5862 5862 5862 5862 5864 5865 5865 5866 5866 5866 5865 5865 5865 5864 5864 5863 5863 5862 5862 5861 5860 5858 5857 5856 5854 5853 5852 5850 5849 5847 5845 5843 5841 5839 5837 5835 5833 5831 5828 5826 5823 5819 5816 5812 5808 5805 5801 5798 5795 5792 5790 5787 5785 5782 5781 5779
5822 5824 5826 5827 5828 5829 5831 5832 5834 5835 5836 5838 5839 5840 5841 5842 5842 5842 5844 5846 5848 5848 5849 5850 5851 5853 5854 5855 5856 5857 5858 5857 5857 5858 5859 5860 5860 5860 5860 5859 5859 5859 5859 5858 5857 5857 5857 5856 5854 5853 5852 5850 5849 5848 5846 5845 5844 5842 5840 5838 5836 5834 5832 5830 5828 5826 5824 5822 5819 5816 5812 5808 5805 5801 5798 5795 5791 5788 5785 5783 5780 5777 5774 5772 5771
5818 5819 5821 5823 5824 5825 5827 5828 5829 5831 5832 5833 5834 5835 5836 5837 5836 5837 5841 5844 5844 5844 5846 5848 5849 5849 5850 5851 5852 5853 5853 5853 5853 5853 5853 5854 5854 5854 5854 5853 5853 5853 5853 5852 5852 5851 5850 5849 5848 5846 5845 5844 5843 5841 5840 5838 5837 5835 5833 5831 5829 5827 5824 5823 5821 5819 5817 5814 5811 5808 5804 5801 5797 5794 5791 5788 5784 5781 5778 5776 5773 5770 5767 5764 5762
5812 5814 5816 5818 5819 5821 5822 5824 5825 5826 5827 5828 5829 5830 5831 5831 5831 5833 5838 5840 5839 5839 5842 5844 5845 5845 5846 5846 5847 5848 5848 5848 5848 5848 5848 5848 5848 5848 5847 5847 5846 5846 5846 5846 5845 5844 5843 5842 5841 5840 5839 5837 5836 5835 5833 5832 5830 5828 5826 5824 5822 5820 5817 5815 5813 5811 5809 5807 5804 5800 5797 5793 5790 5787 5784 5781 5777 5774 5771 5769 5766 5763 5760 5757 5754
5807 5809 5811 5813 5814 5816 5817 5819 5820 5821 5822 5823 5824 5825 5825 5826 5826 5828 5831 5834 5834 5835 5837 5839 5840 5840 5840 5840 5840 5840 5840 5840 5841 5841 5842 5842 5841 5841 5841 5840 5840 5840 5839 5839 5839 5838 5836 5835 5834 5833 5832 5830 5829 5828 5826 5824 5823 5821 5818 5817 5815 5812 5810 5808 5806 5804 5801 5799 5796 5793 5789 5786 5783 5779 5776 5774 5771 5768 5765 5762 5760 5757 5753 5750 5747
5801 5803 5805 5807 5809 5810 5812 5813 5814 5816 5817 5818 5819 5819 5820 5821 5821 5823 5825 5828 5829 5829 5831 5832 5833 5834 5834 5834 5833 5833 5833 5833 5833 5834 5834 5835 5835 5834 5834 5834 5834 5833 5833 5832 5832 5830 5829 5828 5827 5826 5824 5823 5822 5820 5818 5817 5815 5813 5811 5809 5807 5805 5802 5800 5798 5795 5793 5791 5788 5785 5781 5778 5775 5772 5769 5767 5764 5761 5758 5755 5752 5750 5747 5744 5742
5795 5797 5799 5801 5803 5804 5806 5807 5808 5809 5811 5812 5813 5814 5815 5816 5817 5818 5819 5820 5821 5822 5823 5824 5825 5826 5827 5827 5827 5827 5827 5827 5827 5827 5827 5828 5828 5828 5828 5828 5828 5827 5826 5825 5824 5823 5821 5821 5820 5818 5817 5816 5814 5813 5811 5809 5807 5805 5803 5801 5799 5797 5795 5792 5790 5788 5786 5783 5780 5777 5774 5771 5768 5766 5763 5760 5757 5754 5750 5747 5745 5743 5741 5738 5736
5790 5792 5793 5795 5797 5798 5800 5801 5802 5803 5805 5806 5807 5809 5810 5810 5811 5812 5813 5814 5814 5815 5815 5816 5817 5818 5819 5820 5820 5820 5821 5821 5821 5821 5821 5822 5822 5821 5821 5821 5820 5819 5818 5817 5816 5815 5814 5813 5812 5810 5809 5808 5807 5805 5803 5801 5799 5797 5795 5793 5791 5789 5786 5784 5782 5780 5777 5775 5772 5770 5767 5765 5762 5760 5757 5754 5751 5748 5744 5741 5739 5736 5734 5730 5728
5784 5786 5787 5789 5790 5792 5793 5794 5796 5797 5798 5800 5801 5803 5804 5804 5805 5806 5806 5807 5807 5808 5808 5809 5809 5810 5811 5812 5813 5813 5814 5814 5815 5815 5815 5815 5814 5814 5813 5812 5812 5811 5810 5809 5808 5807 5806 5805 5804 5803 5801 5800 5799 5797 5795 5793 5791 5789 5787 5785 5782 5780 5778 5776 5774 5771 5769 5766 5764 5762 5760 5758 5756 5753 5751 5748 5746 5743 5739 5735 5732 5730 5727 5723 5719
5778 5780 5782 5783 5784 5785 5786 5788 5789 5790 5792 5793 5795 5796 5798 5798 5798 5799 5799 5800 5800 5801 5801 5802 5802 5803 5804 5805 5805 5806 5806 5807 5807 5807 5807 5807 5807 5806 5805 5805 5804 5803 5802 5801 5800 5800 5799 5798 5796 5795 5793 5792 5790 5788 5786 5784 5782 5780 5778 5776 5774 5772 5769 5767 5765 5762 5760 5758 5756 5754 5752 5750 5748 5746 5744 5742 5739 5736 5733 5731 5727 5725 5722 5718 5714
5772 5774 5776 5777 5778 5779 5780 5781 5782 5784 5785 5786 5788 5789 5791 5791 5792 5792 5792 5793 5793 5794 5794 5795 5795 5796 5796 5797 5798 5798 5798 5799 5799 5799 5799 5799 5798 5798 5797 5797 5796 5795 5794 5793 5793 5792 5791 5789 5788 5786 5784 5783 5781 5779 5777 5775 5773 5771 5769 5767 5765 5763 5761 5758 5756 5753 5751 5749 5747 5745 5744 5742 5740 5738 5736 5734 5732 5730 5727 5726 5723 5720 5717 5714 5710
5765 5767 5769 5771 5772 5773 5774 5775 5776 5777 5778 5779 5781 5782 5783 5784 5784 5785 5785 5786 5786 5786 5787 5787 5788 5788 5789 5789 5789 5790 5790 5790 5790 5790 5790 5790 5789 5789 5788 5788 5787 5786 5785 5784 5784 5782 5781 5780 5778 5776 5775 5773 5771 5770 5768 5766 5764 5762 5760 5759 5757 5754 5752 5749 5747 5745 5742 5740 5739 5737 5735 5733 5731 5729 5727 5725 5723 5721 5718 5717 5715 5713 5710 5707 5703
5758 5760 5762 5764 5765 5767 5768 5769 5770 5771 5772 5773 5774 5775 5776 5777 5778 5778 5778 5778 5779 5779 5779 5780 5780 5781 5781 5781 5781 5781 5781 5781 5781 5780 5780 5780 5780 5779 5779 5778 5778 5776 5775 5775 5774 5772 5771 5770 5768 5767 5765 5764 5762 5761 5759 5757 5755 5753 5752 5750 5747 5745 5743 5741 5739 5737 5735 5732 5730 5728 5726 5724 5722 5719 5717 5715 5712 5710 5708 5706 5704 5702 5700 5697 5694
5753 5754 5756 5758 5759 5760 5762 5763 5764 5765 5766 5767 5767 5768 5769 5770 5771 5771 5771 5771 5772 5772 5772 5772 5772 5772 5772 5772 5772 5772 5772 5772 5772 5771 5771 5771 5770 5770 5770 5769 5768 5767 5766 5765 5763 5762 5761 5760 5759 5758 5756 5755 5753 5752 5750 5748 5746 5744 5742 5741 5738 5736 5734 5733 5731 5729 5727 5725 5723 5720 5718 5716 5713 5710 5708 5705 5703 5700 5697 5695 5693 5692 5690 5688 5685
5747 5748 5750 5751 5753 5754 5755 5756 5757 5758 5758 5759 5760 5761 5761 5762 5763 5763 5763 5763 5763 5764 5764 5764 5764 5764 5763 5763 5764 5763 5763 5763 5763 5762 5762 5762 5761 5761 5760 5759 5759 5757 5756 5755 5754 5753 5752 5751 5750 5749 5747 5746 5744 5742 5740 5739 5737 5735 5734 5732 5730 5728 5726 5724 5723 5721 5719 5716 5714 5712 5710 5708 5705 5702 5699 5696 5694 5691 5689 5687 5685 5683 5682 5680 5678
5740 5741 5743 5744 5746 5747 5747 5748 5749 5749 5750 5751 5752 5752 5753 5754 5754 5754 5754 5755 5755 5755 5755 5755 5755 5755 5755 5755 5755 5754 5754 5754 5753 5753 5753 5752 5752 5751 5751 5750 5749 5748 5747 5746 5745 5744 5743 5742 5740 5739 5738 5736 5734 5732 5731 5729 5728 5726 5725 5724 5723 5721 5718 5716 5714 5712 5710 5708 5706 5704 5702 5700 5698 5695 5692 5690 5687 5685 5682 5680 5678 5676 5674 5672 5671
5732 5733 5734 5736 5737 5738 5739 5740 5740 5741 5742 5742 5743 5744 5744 5745 5745 5745 5745 5746 5746 5746 5746 5746 5746 5746 5746 5746 5745 5745 5745 5745 5744 5744 5743 5743 5742 5742 5741 5740 5740 5739 5738 5737 5736 5735 5734 5732 5731 5729 5728 5726 5725 5723 5722 5720 5719 5717 5716 5715 5714 5712 5709 5707 5705 5703 5701 5699 5698 5695 5693 5692 5690 5688 5686 5683 5681 5678 5676 5674 5672 5669 5667 5665 5664
5724 5725 5727 5728 5728 5729 5729 5730 5731 5732 5732 5733 5734 5735 5735 5736 5736 5736 5736 5737 5737 5737 5737 5737 5737 5737 5737 5736 5736 5736 5736 5735 5735 5734 5734 5733 5733 5732 5732 5731 5730 5729 5728 5727 5726 5725 5724 5722 5721 5720 5718 5717 5716 5714 5712 5711 5709 5707 5705 5704 5704 5702 5700 5698 5696 5694 5692 5691 5689 5687 5686 5684 5682 5680 5678 5677 5675 5672 5670 5667 5665 5663 5662 5660 5658
5716 5717 5719 5720 5721 5721 5721 5721 5721 5722 5723 5724 5725 5726 5726 5727 5727 5727 5727 5727 5728 5728 5728 5728 5728 5728 5728 5728 5728 5727 5727 5726 5726 5725 5725 5724 5724 5723 5722 5721 5720 5719 5718 5717 5717 5716 5714 5713 5712 5711 5709 5708 5707 5705 5703 5701 5698 5696 5694 5693 5693 5692 5691 5689 5688 5686 5684 5683 5681 5679 5678 5677 5675 5673 5671 5669 5668 5666 5664 5662 5659 5657 5656 5654 5652